Weather History for Berlin, NH

Change the Weather History Date:

Tuesday, February 1, 2005

  Actual Average Record
Temperature  
Mean Temperature 14 °F -  
Max Temperature 37 °F 25 °F 39 °F (2012)
Min Temperature -9 °F 1 °F -20 °F (2009)
Degree Days  
Heating Degree Days 51    
Moisture  
Dew Point -4 °F    
Average Humidity 63    
Maximum Humidity 88    
Minimum Humidity 17    
Precipitation  
Precipitation 0.01 in - - ()
Sea Level Pressure  
Sea Level Pressure 30.48 in    
Wind  
Wind Speed 0 mph (NW)    
Max Wind Speed 6 mph    
Max Gust Speed -    
Visibility 10 miles    
Events      
Averages and records for this station are not official NWS values.
T = Trace of Precipitation, MM = Missing Value Source: NWS Daily Summary

Daily Weather History Graph

Daily Weather History Graph

Search for Another Location

Airport:

Trip Planner

Search our weather history database for the weather conditions in past years. The results will help you decide how hot, cold, wet, or windy it might be!

Date:

Astronomy

Feb. 01, 2005 Rise Set
Actual Time 7:03 AM EST 4:53 PM EST
Civil Twilight 6:32 AM EST 5:24 PM EST
Nautical Twilight 5:57 AM EST 5:59 PM EST
Astronomical Twilight 5:23 AM EST 6:34 PM EST
Moon No Moon Rise 10:07 AM EST (2/1)
Length of Visible Light 10h 52m
Length of Day
9h 50m
Waning Gibbous, 56% of the Moon is Illuminated
Feb 1
Waning Gibbous
Feb 2
Last Quarter
Feb 8
New
Feb 15
First Quarter
Feb 23
Full

Hourly Weather History & Observations

Time (EST) Temp. Windchill Dew Point Humidity Pressure Visibility Wind Dir Wind Speed Gust Speed Precip Events Conditions
12:52 AM -2.0 °F - -7.1 °F 79% 30.42 in 10.0 mi Calm Calm - N/A   Clear
1:52 AM -6.0 °F - -11.0 °F 79% 30.43 in 10.0 mi Calm Calm - N/A   Clear
2:52 AM -4.0 °F - -9.0 °F 79% 30.43 in 10.0 mi Calm Calm - N/A   Clear
3:52 AM -7.1 °F - -11.9 °F 79% 30.43 in 10.0 mi Calm Calm - N/A   Clear
4:52 AM -7.1 °F - -11.9 °F 79% 30.44 in 10.0 mi Calm Calm - N/A   Clear
5:52 AM -7.1 °F - -11.9 °F 79% 30.45 in 10.0 mi Calm Calm - N/A   Clear
6:52 AM -9.9 °F - -15.0 °F 78% 30.48 in 10.0 mi Calm Calm - N/A   Clear
7:52 AM -6.0 °F - -11.0 °F 79% 30.50 in 9.0 mi Calm Calm - N/A   Clear
8:52 AM 1.9 °F - -4.0 °F 76% 30.50 in 10.0 mi Calm Calm - N/A   Clear
9:52 AM 10.0 °F - 1.0 °F 67% 30.51 in 10.0 mi Calm Calm - N/A   Clear
10:52 AM 18.0 °F - 3.0 °F 52% 30.48 in 10.0 mi Calm Calm - N/A   Clear
11:52 AM 26.1 °F - 5.0 °F 41% 30.45 in 10.0 mi Calm Calm - N/A   Clear
12:52 PM 33.1 °F - 1.9 °F 27% 30.42 in 10.0 mi Calm Calm - N/A   Clear
1:52 PM 35.1 °F - -0.0 °F 23% 30.42 in 10.0 mi Calm Calm - N/A   Clear
2:52 PM 37.0 °F 32.4 °F -4.0 °F 17% 30.42 in 10.0 mi NW 5.8 mph - 0.01 in   Clear
3:52 PM 35.1 °F 32.2 °F -2.9 °F 20% 30.44 in 10.0 mi Variable 3.5 mph - N/A   Clear
4:52 PM 28.0 °F - -0.0 °F 30% 30.46 in 10.0 mi Calm Calm - N/A   Clear
5:52 PM 19.0 °F - 6.1 °F 57% 30.50 in 10.0 mi Calm Calm - N/A   Clear
6:52 PM 12.9 °F - 5.0 °F 71% 30.53 in 10.0 mi Calm Calm - N/A   Clear
7:52 PM 8.1 °F - 3.0 °F 80% 30.56 in 10.0 mi Calm Calm - N/A   Clear
8:52 PM 3.9 °F - -0.0 °F 84% 30.56 in 10.0 mi Calm Calm - N/A   Clear
9:52 PM 3.9 °F - -0.0 °F 84% 30.57 in 10.0 mi Calm Calm - N/A   Clear
10:52 PM 1.9 °F - -0.9 °F 88% 30.58 in 10.0 mi Calm Calm - N/A   Clear
11:52 PM -4.0 °F - -9.9 °F 76% 30.59 in 10.0 mi Calm Calm - N/A   Clear